sat.trackr.live / text

‹ back to catalog

2024-092G

NORAD 59779 · 2024-092G

PAYLOAD ACTIVE UNKNOWN

§ Identity

Operator
Country
CIS
Launch date
2024-05-16
Launch site
PLMSC
Launch vehicle
Mass (kg)
RCS (m²)

External: N2YO · Heavens-Above · Gunter

§ Orbital elements

Epoch: 2026-05-25T05:37:30.583200Z

Period
100.57 min
Inclination
98.6672°
Eccentricity
0.0010698
Mean motion
14.31836042 rev/d
Perigee alt
777.9 km
Apogee alt
793.3 km
Semi-major
7,163.7 km
B*
7.0420e-5
RAAN
264.3026°
Arg perigee
276.0096°
Mean anomaly
83.9868°
Rev number
10,561

§ Raw data

2024-092G1 59779U 24092G   26145.23438175  .00000144  00000+0  70420-4 0  99902 59779  98.6672 264.3026 0010698 276.0096  83.9868 14.31836042105611

JSON: /api/v1/satellites/59779 · /tle

For live sub-satellite position, see the globe view (requires WebGL).

§ Visibility from observer

Set your observer location to see the next 7 days of passes ≥ 10°. The values pass through the URL so the page stays shareable.

No JS? Fill the form by hand. The geolocation button needs JavaScript.